Date String (YYYY-MM-DD hh:mm:ss) UTC,Instrument flags,Ambient pressure (hPa),Sample flow (lpm),Bypass flow (lpm),Sample temperature (°C),Ambient temperature (°C),ASC tube jacket temperature (°C),LED temperature (°C),Box temperature (°C),Sample RH (%),Span deviation,Mass concentration (μg/m³),Mass concentration (μg/m³),Mass concentration (μg/m³)
DateTimeUTC,F1_M11,P_M11,Q1_M11,Q2_M11,T1_M11,T2_M11,T3_M11,T4_M11,T5_M11,U1_M11,ZSPAN_M11,X0_M11,X2_M11,X1_M11
2022-05-26 19:00:00,,0826.8,5.00,0.00,29.1,27.3,00.0,38.0,30.9,13.3,0000.0,0010.86,0003.65,0002.80
2022-05-26 19:01:00,,0827.0,5.00,0.00,29.1,27.5,00.0,38.0,30.9,14.0,0000.0,0010.78,0003.69,0002.85
2022-05-26 19:02:00,,0826.8,5.00,0.00,29.1,27.6,00.0,38.0,31.0,14.3,0000.0,0010.21,0003.72,0002.91
2022-05-26 19:03:00,,0826.8,5.00,0.00,29.1,27.8,00.0,38.0,31.0,13.7,0000.0,0010.00,0003.76,0002.94
2022-05-26 19:04:00,,0826.8,4.99,0.00,29.1,27.9,00.0,38.0,31.0,14.6,0000.0,0009.78,0003.78,0002.97
2022-05-26 19:05:00,,0826.8,5.01,0.00,29.2,28.0,00.0,38.0,31.1,13.2,0000.0,0009.54,0003.78,0002.98
2022-05-26 19:06:00,,0826.8,5.00,0.00,29.2,28.2,00.0,38.0,31.1,12.7,0000.0,0009.91,0003.78,0002.97
2022-05-26 19:07:00,,0826.8,5.00,0.00,29.2,28.3,00.0,38.0,31.2,12.9,0000.0,0009.62,0003.74,0002.95
2022-05-26 19:08:00,,0826.8,5.01,0.00,29.3,28.3,00.0,38.1,31.2,12.5,0000.0,0009.77,0003.77,0002.95
2022-05-26 19:09:00,,0826.8,4.99,0.00,29.3,28.4,00.0,38.1,31.3,13.5,0000.0,0009.88,0003.81,0002.96
2022-05-26 19:10:00,,0826.8,5.00,0.00,29.3,28.5,00.0,38.1,31.3,13.1,0000.0,0010.06,0003.77,0002.96
2022-05-26 19:11:00,,0826.8,5.01,0.00,29.4,28.6,00.0,38.1,31.3,13.8,0000.0,0009.63,0003.72,0002.94
2022-05-26 19:12:00,,0826.8,5.01,0.00,29.4,28.5,00.0,38.1,31.3,14.2,0000.0,0010.04,0003.69,0002.94
2022-05-26 19:13:00,,0826.8,5.00,0.00,29.4,27.9,00.0,38.1,31.2,13.4,0000.0,0010.23,0003.65,0002.91
2022-05-26 19:14:00,,0826.8,4.98,0.00,29.3,27.5,00.0,38.0,31.1,13.2,0000.0,0010.32,0003.66,0002.90
2022-05-26 19:15:00,,0826.8,5.00,0.00,29.3,27.4,00.0,38.1,31.0,13.1,0000.0,0010.39,0003.65,0002.90
2022-05-26 19:16:00,,0826.7,5.01,0.00,29.2,27.5,00.0,38.1,31.0,13.5,0000.0,0010.65,0003.68,0002.92
2022-05-26 19:17:00,,0826.8,5.01,0.00,29.2,27.6,00.0,38.1,31.0,14.3,0000.0,0010.83,0003.73,0002.94
2022-05-26 19:18:00,,0826.8,4.99,0.00,29.2,27.7,00.0,38.1,31.1,13.4,0000.0,0010.70,0003.75,0002.96
2022-05-26 19:19:00,,0826.7,4.99,0.00,29.2,27.9,00.0,38.1,31.1,14.4,0000.0,0011.64,0003.78,0002.98
2022-05-26 19:20:00,,0826.7,5.00,0.00,29.3,28.0,00.0,38.1,31.1,13.0,0000.0,0011.88,0003.80,0002.99
2022-05-26 19:21:00,,0826.7,5.00,0.00,29.3,28.1,00.0,38.1,31.2,13.0,0000.0,0011.44,0003.86,0003.02
2022-05-26 19:22:00,,0826.7,5.01,0.00,29.3,28.2,00.0,38.1,31.2,13.5,0000.0,0011.51,0003.89,0003.04
2022-05-26 19:23:00,,0826.7,5.00,0.00,29.3,28.3,00.0,38.1,31.3,13.7,0000.0,0012.07,0003.93,0003.05
2022-05-26 19:24:00,,0826.7,4.99,0.00,29.4,28.4,00.0,38.1,31.3,13.3,0000.0,0012.59,0003.98,0003.05
2022-05-26 19:25:00,,0826.6,5.01,0.00,29.4,28.5,00.0,38.2,31.3,13.2,0000.0,0013.38,0003.98,0003.08
2022-05-26 19:26:00,,0826.6,5.00,0.00,29.4,28.6,00.0,38.2,31.4,13.2,0000.0,0014.38,0003.99,0003.10
2022-05-26 19:27:00,,0826.6,5.00,0.00,29.4,28.2,00.0,38.2,31.3,13.5,0000.0,0014.41,0004.01,0003.12
2022-05-26 19:28:00,,0826.6,5.00,0.00,29.3,27.2,00.0,38.1,31.0,13.3,0000.0,0013.87,0003.97,0003.12
2022-05-26 19:29:00,,0826.6,5.01,0.00,29.2,26.8,00.0,38.0,30.9,14.0,0000.0,0013.59,0003.94,0003.13
2022-05-26 19:30:00,,0826.7,4.99,0.00,29.2,26.8,00.0,38.0,30.8,12.9,0000.0,0013.06,0003.92,0003.15
2022-05-26 19:31:00,,0826.6,5.00,0.00,29.1,26.9,00.0,38.0,30.8,13.7,0000.0,0012.82,0003.91,0003.15
2022-05-26 19:32:00,,0826.6,5.00,0.00,29.1,27.0,00.0,38.0,30.8,13.9,0000.0,0012.92,0003.91,0003.16
2022-05-26 19:33:00,,0826.6,5.00,0.00,29.1,27.2,00.0,38.0,30.9,13.2,0000.0,0013.19,0003.91,0003.17
2022-05-26 19:34:00,,0826.7,5.00,0.00,29.1,27.4,00.0,38.0,30.9,13.1,0000.0,0013.00,0003.89,0003.19
2022-05-26 19:35:00,,0826.7,4.99,0.00,29.1,27.6,00.0,38.0,31.0,13.0,0000.0,0013.27,0003.90,0003.20
2022-05-26 19:36:00,,0826.6,5.00,0.00,29.1,27.8,00.0,38.0,31.0,13.0,0000.0,0012.84,0003.90,0003.20
2022-05-26 19:37:00,,0826.6,5.01,0.00,29.1,27.9,00.0,38.0,31.0,13.4,0000.0,0012.31,0003.91,0003.20
2022-05-26 19:38:00,,0826.6,5.01,0.00,29.1,28.0,00.0,38.0,31.1,13.8,0000.0,0012.34,0003.90,0003.20
2022-05-26 19:39:00,,0826.6,4.99,0.00,29.2,28.1,00.0,38.0,31.1,14.8,0000.0,0012.38,0003.91,0003.20
2022-05-26 19:40:00,,0826.6,5.00,0.00,29.2,28.3,00.0,38.0,31.2,13.4,0000.0,0012.22,0003.91,0003.20
2022-05-26 19:41:00,,0826.6,5.01,0.00,29.2,28.3,00.0,38.1,31.2,13.5,0000.0,0012.18,0003.93,0003.20
2022-05-26 19:42:00,,0826.6,4.99,0.00,29.3,28.4,00.0,38.1,31.3,13.2,0000.0,0012.16,0003.92,0003.20
2022-05-26 19:43:00,,0826.5,5.00,0.00,29.3,28.5,00.0,38.1,31.3,13.4,0000.0,0012.36,0003.92,0003.20
2022-05-26 19:44:00,,0826.5,5.01,0.00,29.4,28.6,00.0,38.1,31.3,14.7,0000.0,0012.05,0003.89,0003.19
2022-05-26 19:45:00,,0826.5,5.00,0.00,29.4,28.6,00.0,38.1,31.4,14.6,0000.0,0011.82,0003.93,0003.18
2022-05-26 19:46:00,,0826.5,4.99,0.00,29.4,28.4,00.0,38.1,31.3,14.2,0000.0,0011.08,0003.94,0003.18
2022-05-26 19:47:00,,0826.5,5.01,0.00,29.3,27.5,00.0,38.1,31.1,12.7,0000.0,0010.27,0003.93,0003.17
2022-05-26 19:48:00,,0826.5,4.99,0.00,29.3,26.8,00.0,38.0,30.9,13.2,0000.0,0009.85,0003.90,0003.16
2022-05-26 19:49:00,,0826.5,5.00,0.00,29.2,26.8,00.0,38.0,30.8,13.8,0000.0,0009.36,0003.89,0003.14
2022-05-26 19:50:00,,0826.5,5.00,0.00,29.1,26.9,00.0,38.0,30.8,13.3,0000.0,0009.29,0003.84,0003.13
2022-05-26 19:51:00,,0826.5,5.01,0.00,29.1,27.0,00.0,38.0,30.8,13.8,0000.0,0009.71,0003.85,0003.12
2022-05-26 19:52:00,,0826.5,5.00,0.00,29.1,27.2,00.0,38.0,30.9,13.1,0000.0,0009.68,0003.81,0003.09
2022-05-26 19:53:00,,0826.5,4.98,0.00,29.1,27.4,00.0,38.0,30.9,12.8,0000.0,0009.71,0003.78,0003.06
2022-05-26 19:54:00,,0826.5,5.00,0.00,29.1,27.6,00.0,38.0,31.0,13.4,0000.0,0009.68,0003.79,0003.04
2022-05-26 19:55:00,,0826.5,5.01,0.00,29.1,27.8,00.0,38.0,31.0,12.8,0000.0,0009.64,0003.81,0003.03
2022-05-26 19:56:00,,0826.5,5.00,0.00,29.1,27.9,00.0,38.0,31.0,13.0,0000.0,0009.26,0003.80,0003.01
2022-05-26 19:57:00,,0826.5,5.00,0.00,29.2,28.0,00.0,38.0,31.1,12.7,0000.0,0009.99,0003.80,0003.00
2022-05-26 19:58:00,,0826.4,5.00,0.00,29.2,28.2,00.0,38.0,31.1,12.5,0000.0,0010.28,0003.80,0002.97
2022-05-26 19:59:00,,0826.4,5.00,0.00,29.2,28.3,00.0,38.0,31.2,13.1,0000.0,0011.02,0003.82,0002.97
